sat.trackr.live / text

‹ back to catalog

UNKNOWN

NORAD 89177

UNKNOWN UNKNOWN UNKNOWN

§ Identity

Operator
Country
Launch date
Launch site
Launch vehicle
Mass (kg)
RCS (m²)

External: N2YO · Heavens-Above

§ Orbital elements

Epoch: 2026-05-19T06:37:48.256608Z

Period
104.82 min
Inclination
82.9196°
Eccentricity
0.0033858
Mean motion
13.73752549 rev/d
Perigee alt
961.2 km
Apogee alt
1,011.1 km
Semi-major
7,364.3 km
B*
3.5661e-5
RAAN
152.3367°
Arg perigee
65.5704°
Mean anomaly
294.8977°
Rev number
8,445

§ Raw data

UNKNOWN1 89177U          26139.27625297  .00000049  00000+0  35661-4 0  99902 89177  82.9196 152.3367 0033858  65.5704 294.8977 13.73752549 84453

JSON: /api/v1/satellites/89177 · /tle

For live sub-satellite position, see the globe view (requires WebGL).

§ Visibility from observer

Set your observer location to see the next 7 days of passes ≥ 10°. The values pass through the URL so the page stays shareable.

No JS? Fill the form by hand. The geolocation button needs JavaScript.